Location: Hains Lake
(37.8540°N, 99.8578°W)
Time: 16:55:36
(UTC+00:00)

Courier 1B Rocket - Pass Details

Date: 19 April 2021
Orbit: 920 x 1202 km, 28.3° (Epoch: 10 May)

Event Time Altitude Azimuth Distance (km) Brightness Sun altitude
Rises 02:07:12 0° 226° (SW) 3,683 8.4 -9.9°
Reaches altitude 10° 02:10:16 10° 213° (SSW) 2,780 7.5 -10.5°
Maximum altitude 02:15:39 25° 161° (SSE) 1,963 6.2 -11.5°
Enters shadow 02:19:43 16° 118° (ESE) 2,531 6.5 -12.2°
